Regional Weather Roundup
Issued by NWS

Home | Current Version | Previous Version | Text Only | Print | Product List | Glossary On
Versions: 1 2 3 4 5 6 7 8 9 10 11 12 13 14 15 16 17 18 19 20 21 22 23 24 25 26 27 28 29 30 31 32 33 34 35 36 37 38 39 40 41 42 43 44 45 46 47 48 49 50
000
ASPQ40 PGUM 240212
RWRPQ
WEATHER ROUNDUP FOR THE MARIANAS AND MICRONESIA
NATIONAL WEATHER SERVICE TIYAN GU
1200 PM CHST THU JUL 24 2014

GUZ001>004-240300-
MARIANA ISLANDS-

CITY           SKY/WX    TMP DP  RH WIND       PRES   REMARKS
GUAM AIRPORT   SUNNY     88  73  62 E13       29.78F HX  96
ANDERSEN AFB   MOSUNNY   86  77  74 NE10      29.79S HX  97
ROTA AIRPORT   PTSUNNY   82  75  78 E8        29.79F
TINIAN AP      PTSUNNY   82  77  83 NE8       29.76F HX  91
SAIPAN AP      PTSUNNY   82  77  83 E6        29.79R HX  91

$$

PMZ161-240300-
REPUBLIC OF PALAU-

CITY           SKY/WX    TMP DP  RH WIND       PRES   REMARKS
KOROR AP       LGT RAIN  79  79 100 W14G26    29.77S
KOROR WSO      LGT RAIN  81  75  83 W6        29.76F

$$

PMZ171>174-240300-
FEDERATED STATES OF MICRONESIA-

CITY           SKY/WX    TMP DP  RH WIND       PRES   REMARKS
YAP AIRPORT    PTSUNNY   86  77  74 VRB6      29.74F HX  97
CHUUK AP       CLOUDY    84  77  79 S10       29.73F HX  94
POHNPEI AP     CLOUDY    84  77  79 SW8       29.77F HX  94
POHNPEI WSO    CLOUDY    84  77  79 S3        29.81F HX  94
KOSRAE AP      NOT AVBL

$$

PMZ181-240300-
REPUBLIC OF THE MARSHALL ISLANDS-

CITY           SKY/WX    TMP DP  RH WIND       PRES   REMARKS
KWAJALEIN AP   MOSUNNY   90  73  58 E9        29.79F HX  98
MAJURO AP      NOT AVBL
MAJURO WSO     MOSUNNY   88  79  74 NE12      29.76F HX 102

$$



USA.gov is the U.S. government's official web portal to all federal, state and local government web resources and services.